This is the latest recevied weather packets stored in our database for station/object IW0HP-3. If no packets are shown the sender has not sent any weather packets the latest 10 day(s).
| Time | Temp. | Humidity | Pressure | Rain* | Wind** | Luminosity | Snow |
|---|---|---|---|---|---|---|---|
| 1777625096 | 17.22° C | 31% | 1023.2 hPa | - | - | - | - |
| 1777623891 | 16.67° C | 35% | 1022.9 hPa | - | - | - | - |
| 1777622687 | 16.11° C | 37% | 1022.8 hPa | - | - | - | - |
| 1777621482 | 16.11° C | 38% | 1022.9 hPa | - | - | - | - |
| 1777620277 | 15.56° C | 42% | 1022.6 hPa | - | - | - | - |
| 1777619073 | 14.44° C | 43% | 1022.6 hPa | - | - | - | - |
| 1777617868 | 13.89° C | 45% | 1022.4 hPa | - | - | - | - |
| 1777616664 | 13.33° C | 45% | 1022.4 hPa | - | - | - | - |
| 1777615460 | 13.89° C | 45% | 1022.6 hPa | - | - | - | - |
| 1777614255 | 13.33° C | 45% | 1022.4 hPa | - | - | - | - |
| 1777613050 | 12.78° C | 47% | 1022.3 hPa | - | - | - | - |
| 1777611846 | 12.78° C | 47% | 1022.2 hPa | - | - | - | - |
| 1777610642 | 12.22° C | 48% | 1022.1 hPa | - | - | - | - |
| 1777609437 | 12.22° C | 48% | 1022 hPa | - | - | - | - |
| 1777608232 | 12.22° C | 48% | 1021.7 hPa | - | - | - | - |
| 1777607028 | 12.22° C | 48% | 1021.6 hPa | - | - | - | - |
| 1777605823 | 12.22° C | 48% | 1021.6 hPa | - | - | - | - |
| 1777604619 | 12.78° C | 49% | 1021.3 hPa | - | - | - | - |
| 1777603414 | 13.33° C | 47% | 1021.4 hPa | - | - | - | - |
| 1777601005 | 13.89° C | 48% | 1021.3 hPa | - | - | - | - |
| 1777599801 | 13.89° C | 47% | 1021.3 hPa | - | - | - | - |
| 1777597392 | 14.44° C | 47% | 1021 hPa | - | - | - | - |
| 1777596187 | 14.44° C | 47% | 1021 hPa | - | - | - | - |
| 1777594982 | 15° C | 47% | 1020.8 hPa | - | - | - | - |
| 1777593777 | 15° C | 46% | 1020.8 hPa | - | - | - | - |
* Rain since midnight (hover to see other rain measurements)
** Current wind speed in m/s (hover to see current wind gust speed)